Location: Carrer del Canonge
(41.4901°N, 2.2931°E)
Time: 19:42:50
(UTC+00:00)

Envisat - Visible Passes

Search period start: 25 November 2020 00:00
Search period end: 05 December 2020 00:00
Orbit: 764 x 766 km, 98.1° (Epoch: 25 November)

Date Brightness Start Highest point End Pass type
(mag) Time Alt. Az. Time Alt. Az. Time Alt. Az.
25 Nov 3.2 05:44:15 10° NNE 05:49:21 78° ESE 05:54:25 10° S visible
25 Nov 3.2 16:58:45 10° S 17:03:50 81° W 17:08:56 10° NNW visible
26 Nov 4.7 05:07:48 10° NNE 05:12:26 34° E 05:17:02 10° SSE visible
26 Nov 5.7 18:02:34 10° SW 18:06:20 21° W 18:10:09 10° NW visible
27 Nov 6.0 04:32:18 10° NE 04:35:19 16° E 04:38:18 10° SE visible
27 Nov 3.0 06:09:43 10° N 06:14:44 61° WNW 06:19:43 10° SSW visible
27 Nov 4.2 17:24:26 10° S 17:29:18 46° W 17:34:12 10° NNW visible
28 Nov 3.6 05:32:54 10° NNE 05:37:58 61° ESE 05:42:57 10° S visible
28 Nov 3.0 16:47:22 10° SSE 16:52:27 80° ENE 16:57:33 10° N visible
28 Nov 6.3 18:30:22 10° WSW 18:32:03 12° W 18:33:45 10° WNW visible
29 Nov 5.1 04:56:40 10° NE 05:00:58 27° E 05:05:15 10° SSE visible
29 Nov 5.3 17:50:38 10° SSW 17:54:52 26° W 17:59:07 10° NW visible
30 Nov 6.2 04:21:51 10° ENE 04:23:47 12° E 04:25:44 10° ESE visible
30 Nov 2.9 05:58:16 10° N 06:03:22 77° WNW 06:08:26 10° SSW visible
30 Nov 3.7 17:12:53 10° S 17:17:52 59° W 17:22:54 10° NNW visible
01 Dec 4.1 05:21:37 10° NNE 05:26:32 48° E 05:31:25 10° S visible
01 Dec 6.1 18:17:40 10° SW 18:20:32 15° W 18:23:24 10° NW visible
02 Dec 5.5 04:45:37 10° NE 04:49:30 22° E 04:53:21 10° SE visible
02 Dec 3.3 06:23:53 10° N 06:28:42 44° WNW 06:33:29 10° SW visible
02 Dec 4.9 17:38:51 10° SSW 17:43:24 33° W 17:47:59 10° NNW visible
03 Dec 3.1 05:46:53 10° NNE 05:51:59 84° ESE 05:57:04 10° SSW visible
03 Dec 3.3 17:01:24 10° S 17:06:28 75° WSW 17:11:34 10° NNW visible
04 Dec 4.5 05:10:22 10° NNE 05:15:06 37° E 05:19:47 10° SSE visible
04 Dec 5.8 18:05:27 10° SW 18:09:01 19° W 18:12:37 10° NW visible
